Location: Bletchingley
(51.2333°N, 0.1000°W)
Time: 15:26:46
(UTC+00:00)

Cosmos 2266 Rocket - Pass Details

Date: 19 January 2021
Orbit: 934 x 1008 km, 82.9° (Epoch: 05 March)

Event Time Altitude Azimuth Distance (km) Brightness Sun altitude
Rises 07:11:00 0° 351° (N) 3,637 6.7 -6.8°
Reaches altitude 10° 07:13:32 10° 353° (N) 2,679 6.0 -6.4°
Maximum altitude 07:19:38 72° 78° (ENE) 990 4.3 -5.6°
Drops below altitude 10° 07:25:38 10° 163° (SSE) 2,639 7.0 -4.7°
Sets 07:28:06 0° 165° (SSE) 3,578 7.6 -4.4°
